Time,TemperatureF,DewpointF,PressureIn,WindDirection,WindDirectionDegrees,WindSpeedMPH,WindSpeedGustMPH,Humidity,HourlyPrecipIn,Conditions,Clouds,dailyrainin,SoftwareType,DateUTC
2013-04-27 00:03:00,55.0,50.0,30.47,East,87,0.0,0.0,83,0.00,,,0.00,,2013-04-27 04:03:00,
2013-04-27 00:13:00,55.0,50.0,30.47,East,87,0.0,0.0,83,0.00,,,0.00,,2013-04-27 04:13:00,
2013-04-27 00:23:00,55.0,50.0,30.48,East,87,0.0,0.0,82,0.00,,,0.00,,2013-04-27 04:23:00,
2013-04-27 00:33:00,55.0,50.0,30.48,East,87,0.0,0.0,83,0.00,,,0.00,,2013-04-27 04:33:00,
2013-04-27 00:43:00,55.0,50.0,30.48,East,87,0.0,0.0,83,0.00,,,0.00,,2013-04-27 04:43:00,
2013-04-27 00:53:00,55.0,50.0,30.49,East,87,0.0,0.0,83,0.00,,,0.00,,2013-04-27 04:53:00,
2013-04-27 01:02:00,55.0,51.0,30.49,East,87,0.0,0.0,85,0.00,,,0.00,,2013-04-27 05:02:00,
2013-04-27 01:12:00,55.0,51.0,30.49,East,87,0.0,0.0,85,0.00,,,0.00,,2013-04-27 05:12:00,
2013-04-27 01:22:00,55.0,51.0,30.50,East,87,0.0,0.0,86,0.00,,,0.00,,2013-04-27 05:22:00,
2013-04-27 01:32:00,54.0,50.0,30.50,East,89,0.0,0.0,86,0.00,,,0.00,,2013-04-27 05:32:00,
2013-04-27 01:42:00,54.0,50.0,30.50,East,89,0.0,0.0,86,0.00,,,0.00,,2013-04-27 05:42:00,
2013-04-27 01:52:00,54.0,50.0,30.49,East,89,0.0,0.0,86,0.00,,,0.00,,2013-04-27 05:52:00,
2013-04-27 02:02:00,54.0,50.0,30.48,WNW,301,0.0,0.0,85,0.00,,,0.00,,2013-04-27 06:02:00,
2013-04-27 02:12:00,54.0,50.0,30.48,WNW,301,0.0,0.0,85,0.00,,,0.00,,2013-04-27 06:12:00,
2013-04-27 02:22:00,54.0,50.0,30.48,WNW,301,0.0,0.0,86,0.00,,,0.00,,2013-04-27 06:22:00,
2013-04-27 02:32:00,54.0,51.0,30.47,WNW,301,0.0,0.0,88,0.00,,,0.00,,2013-04-27 06:32:00,
2013-04-27 02:42:00,54.0,51.0,30.47,WNW,301,0.0,0.0,88,0.00,,,0.00,,2013-04-27 06:42:00,
2013-04-27 02:52:00,54.0,51.0,30.47,WNW,301,0.0,0.0,89,0.00,,,0.00,,2013-04-27 06:52:00,
2013-04-27 03:01:00,54.0,51.0,30.47,WNW,301,0.0,0.0,89,0.00,,,0.00,,2013-04-27 07:01:00,
2013-04-27 03:11:00,54.0,51.0,30.47,WNW,301,0.0,0.0,89,0.00,,,0.00,,2013-04-27 07:11:00,
2013-04-27 03:21:00,54.0,50.0,30.46,WNW,301,0.0,0.0,87,0.00,,,0.00,,2013-04-27 07:21:00,
2013-04-27 03:32:00,54.0,51.0,30.47,WNW,301,0.0,0.0,88,0.00,,,0.00,,2013-04-27 07:32:00,
2013-04-27 03:42:00,54.0,51.0,30.47,WNW,301,0.0,0.0,88,0.00,,,0.00,,2013-04-27 07:42:00,
2013-04-27 03:52:00,54.0,51.0,30.47,ESE,105,0.0,1.0,91,0.00,,,0.00,,2013-04-27 07:52:00,
2013-04-27 04:01:00,53.0,50.0,30.46,ESE,105,0.0,0.0,91,0.00,,,0.00,,2013-04-27 08:01:00,
2013-04-27 04:11:00,53.0,50.0,30.46,ESE,105,0.0,0.0,91,0.00,,,0.00,,2013-04-27 08:11:00,
2013-04-27 04:21:00,53.0,51.0,30.46,ESE,105,0.0,0.0,93,0.00,,,0.00,,2013-04-27 08:21:00,
2013-04-27 04:33:00,53.0,51.0,30.45,ESE,105,0.0,0.0,94,0.00,,,0.00,,2013-04-27 08:33:00,
2013-04-27 04:42:00,53.0,51.0,30.45,ESE,105,0.0,0.0,94,0.00,,,0.00,,2013-04-27 08:42:00,
2013-04-27 04:52:00,53.0,52.0,30.45,ESE,105,0.0,0.0,95,0.00,,,0.00,,2013-04-27 08:52:00,
2013-04-27 05:01:00,53.0,52.0,30.45,ESE,105,0.0,0.0,95,0.00,,,0.00,,2013-04-27 09:01:00,
2013-04-27 05:11:00,53.0,52.0,30.45,ESE,105,0.0,0.0,95,0.00,,,0.00,,2013-04-27 09:11:00,
2013-04-27 05:21:00,53.0,52.0,30.45,ESE,105,0.0,0.0,95,0.00,,,0.00,,2013-04-27 09:21:00,
2013-04-27 05:33:00,53.0,51.0,30.45,ESE,105,0.0,0.0,94,0.00,,,0.00,,2013-04-27 09:33:00,
2013-04-27 05:42:00,53.0,51.0,30.45,ESE,105,0.0,0.0,94,0.00,,,0.00,,2013-04-27 09:42:00,
2013-04-27 05:53:00,53.0,51.0,30.45,ESE,105,0.0,0.0,94,0.00,,,0.00,,2013-04-27 09:53:00,
2013-04-27 06:03:00,53.0,52.0,30.45,ESE,105,0.0,0.0,95,0.00,,,0.00,,2013-04-27 10:03:00,
2013-04-27 06:12:00,53.0,52.0,30.45,ESE,105,0.0,0.0,95,0.00,,,0.00,,2013-04-27 10:12:00,
2013-04-27 06:22:00,53.0,52.0,30.45,ESE,105,0.0,0.0,95,0.00,,,0.00,,2013-04-27 10:22:00,
2013-04-27 06:32:00,53.0,52.0,30.45,ESE,105,0.0,0.0,96,0.00,,,0.00,,2013-04-27 10:32:00,
2013-04-27 06:42:00,53.0,52.0,30.45,ESE,105,0.0,0.0,96,0.00,,,0.00,,2013-04-27 10:42:00,
2013-04-27 06:52:00,53.0,52.0,30.45,ESE,105,0.0,0.0,96,0.00,,,0.00,,2013-04-27 10:52:00,
2013-04-27 07:02:00,53.0,52.0,30.45,ESE,105,0.0,0.0,96,0.00,,,0.00,,2013-04-27 11:02:00,
2013-04-27 07:12:00,53.0,52.0,30.46,ESE,105,0.0,0.0,97,0.00,,,0.00,,2013-04-27 11:12:00,
2013-04-27 07:22:00,53.0,52.0,30.46,ESE,105,0.0,0.0,97,0.00,,,0.00,,2013-04-27 11:22:00,
2013-04-27 07:32:00,53.0,52.0,30.46,ESE,105,0.0,0.0,97,0.00,,,0.00,,2013-04-27 11:32:00,
2013-04-27 07:42:00,53.0,52.0,30.46,ESE,105,0.0,0.0,97,0.00,,,0.00,,2013-04-27 11:42:00,
2013-04-27 07:52:00,53.0,52.0,30.46,ESE,105,0.0,0.0,97,0.00,,,0.00,,2013-04-27 11:52:00,
2013-04-27 08:01:00,53.0,52.0,30.47,NW,322,0.0,0.0,97,0.00,,,0.00,,2013-04-27 12:01:00,
2013-04-27 08:11:00,53.0,52.0,30.47,NW,322,0.0,0.0,97,0.00,,,0.00,,2013-04-27 12:11:00,
2013-04-27 08:22:00,53.0,52.0,30.47,NW,322,0.0,0.0,97,0.00,,,0.00,,2013-04-27 12:22:00,
2013-04-27 08:32:00,54.0,53.0,30.47,NW,322,0.0,0.0,96,0.00,,,0.00,,2013-04-27 12:32:00,
2013-04-27 08:42:00,54.0,53.0,30.47,NW,322,0.0,0.0,96,0.00,,,0.00,,2013-04-27 12:42:00,
2013-04-27 08:52:00,54.0,53.0,30.46,NW,322,0.0,0.0,96,0.00,,,0.00,,2013-04-27 12:52:00,
2013-04-27 09:02:00,54.0,53.0,30.47,NW,322,0.0,0.0,97,0.00,,,0.00,,2013-04-27 13:02:00,
2013-04-27 09:11:00,54.0,53.0,30.47,NW,322,0.0,0.0,97,0.00,,,0.00,,2013-04-27 13:11:00,
2013-04-27 09:21:00,55.0,54.0,30.48,South,169,0.0,0.0,95,0.00,,,0.00,,2013-04-27 13:21:00,
2013-04-27 09:32:00,55.0,54.0,30.48,South,169,0.0,0.0,96,0.00,,,0.00,,2013-04-27 13:32:00,
2013-04-27 09:42:00,55.0,54.0,30.48,South,169,0.0,0.0,96,0.00,,,0.00,,2013-04-27 13:42:00,
2013-04-27 09:52:00,55.0,54.0,30.47,South,169,0.0,0.0,95,0.00,,,0.00,,2013-04-27 13:52:00,
2013-04-27 10:02:00,57.0,55.0,30.47,South,169,0.0,0.0,92,0.00,,,0.00,,2013-04-27 14:02:00,
2013-04-27 10:11:00,57.0,55.0,30.47,South,169,0.0,0.0,92,0.00,,,0.00,,2013-04-27 14:11:00,
2013-04-27 10:21:00,58.0,55.0,30.47,South,169,0.0,0.0,91,0.00,,,0.00,,2013-04-27 14:21:00,
2013-04-27 10:32:00,58.0,55.0,30.47,South,169,0.0,0.0,90,0.00,,,0.00,,2013-04-27 14:32:00,
2013-04-27 10:42:00,58.0,55.0,30.47,South,169,0.0,0.0,90,0.00,,,0.00,,2013-04-27 14:42:00,
2013-04-27 10:52:00,58.0,55.0,30.47,South,169,0.0,0.0,89,0.00,,,0.00,,2013-04-27 14:52:00,
2013-04-27 11:01:00,59.0,56.0,30.47,South,169,0.0,0.0,89,0.00,,,0.00,,2013-04-27 15:01:00,
2013-04-27 11:12:00,59.0,56.0,30.47,South,169,0.0,0.0,89,0.00,,,0.00,,2013-04-27 15:12:00,
2013-04-27 11:22:00,59.0,55.0,30.47,SW,229,0.0,0.0,86,0.00,,,0.00,,2013-04-27 15:22:00,
2013-04-27 11:33:00,59.0,54.0,30.47,SW,214,0.0,0.0,85,0.00,,,0.00,,2013-04-27 15:33:00,
2013-04-27 11:42:00,59.0,54.0,30.47,SW,214,0.0,0.0,85,0.00,,,0.00,,2013-04-27 15:42:00,
2013-04-27 11:53:00,59.0,54.0,30.48,SW,214,0.0,0.0,82,0.00,,,0.00,,2013-04-27 15:53:00,
2013-04-27 12:03:00,59.0,54.0,30.48,SW,214,0.0,0.0,84,0.00,,,0.00,,2013-04-27 16:03:00,
2013-04-27 12:13:00,59.0,54.0,30.48,SW,214,0.0,0.0,84,0.00,,,0.00,,2013-04-27 16:13:00,
2013-04-27 12:22:00,59.0,54.0,30.47,SW,214,0.0,0.0,84,0.00,,,0.00,,2013-04-27 16:22:00,
2013-04-27 12:33:00,59.0,54.0,30.47,SW,214,0.0,0.0,84,0.00,,,0.00,,2013-04-27 16:33:00,
2013-04-27 12:42:00,59.0,54.0,30.47,SW,214,0.0,0.0,84,0.00,,,0.00,,2013-04-27 16:42:00,
2013-04-27 12:53:00,60.0,55.0,30.47,SW,214,0.0,0.0,83,0.00,,,0.00,,2013-04-27 16:53:00,
2013-04-27 13:02:00,60.0,56.0,30.48,SW,214,0.0,0.0,87,0.00,,,0.00,,2013-04-27 17:02:00,
2013-04-27 13:12:00,60.0,56.0,30.48,SW,214,0.0,0.0,87,0.00,,,0.00,,2013-04-27 17:12:00,
2013-04-27 13:22:00,59.0,56.0,30.47,SW,214,0.0,0.0,89,0.00,,,0.01,,2013-04-27 17:22:00,
2013-04-27 13:32:00,59.0,58.0,30.48,SW,214,0.0,0.0,95,0.00,,,0.02,,2013-04-27 17:32:00,
2013-04-27 13:42:00,59.0,58.0,30.48,SW,214,0.0,0.0,95,0.00,,,0.02,,2013-04-27 17:42:00,
2013-04-27 13:53:00,57.0,56.0,30.48,SW,214,0.0,0.0,97,0.00,,,0.04,,2013-04-27 17:53:00,
2013-04-27 14:02:00,56.0,56.0,30.48,SW,214,0.0,0.0,99,0.00,,,0.06,,2013-04-27 18:02:00,
2013-04-27 14:12:00,56.0,56.0,30.48,SW,214,0.0,0.0,99,0.00,,,0.06,,2013-04-27 18:12:00,
2013-04-27 14:22:00,56.0,56.0,30.49,SW,214,0.0,0.0,100,0.00,,,0.10,,2013-04-27 18:22:00,
2013-04-27 14:32:00,56.0,56.0,30.48,SW,214,0.0,0.0,99,0.00,,,0.15,,2013-04-27 18:32:00,
2013-04-27 14:42:00,56.0,56.0,30.48,SW,214,0.0,0.0,99,0.00,,,0.15,,2013-04-27 18:42:00,
2013-04-27 14:52:00,55.0,55.0,30.48,SW,214,0.0,0.0,100,0.00,,,0.19,,2013-04-27 18:52:00,
2013-04-27 15:02:00,55.0,55.0,30.47,SW,214,0.0,0.0,100,0.00,,,0.24,,2013-04-27 19:02:00,
2013-04-27 15:11:00,55.0,55.0,30.47,SW,214,0.0,0.0,100,0.00,,,0.24,,2013-04-27 19:11:00,
2013-04-27 15:21:00,55.0,55.0,30.48,SW,214,0.0,0.0,100,0.00,,,0.29,,2013-04-27 19:21:00,
2013-04-27 15:32:00,55.0,55.0,30.46,SW,214,0.0,0.0,100,0.00,,,0.37,,2013-04-27 19:32:00,
2013-04-27 15:42:00,55.0,55.0,30.46,SW,214,0.0,0.0,100,0.00,,,0.37,,2013-04-27 19:42:00,
2013-04-27 15:52:00,55.0,55.0,30.46,SW,214,0.0,0.0,100,0.00,,,0.39,,2013-04-27 19:52:00,
2013-04-27 16:02:00,55.0,55.0,30.45,SW,214,0.0,0.0,100,0.00,,,0.43,,2013-04-27 20:02:00,
2013-04-27 16:11:00,55.0,55.0,30.45,SW,214,0.0,0.0,100,0.00,,,0.43,,2013-04-27 20:11:00,
2013-04-27 16:21:00,56.0,56.0,30.45,SW,214,0.0,0.0,100,0.00,,,0.44,,2013-04-27 20:21:00,
2013-04-27 16:32:00,55.0,55.0,30.44,SW,214,0.0,0.0,100,0.00,,,0.45,,2013-04-27 20:32:00,
2013-04-27 16:42:00,55.0,55.0,30.44,SW,214,0.0,0.0,100,0.00,,,0.45,,2013-04-27 20:42:00,
2013-04-27 16:52:00,55.0,55.0,30.45,SW,214,0.0,0.0,100,0.00,,,0.46,,2013-04-27 20:52:00,
2013-04-27 17:02:00,55.0,55.0,30.46,SW,214,0.0,0.0,100,0.00,,,0.48,,2013-04-27 21:02:00,
2013-04-27 17:12:00,55.0,55.0,30.46,SW,214,0.0,0.0,100,0.00,,,0.48,,2013-04-27 21:12:00,
2013-04-27 17:21:00,55.0,55.0,30.44,SSW,197,0.0,0.0,100,0.00,,,0.51,,2013-04-27 21:21:00,
2013-04-27 17:33:00,55.0,55.0,30.43,South,188,1.0,3.0,100,0.00,,,0.55,,2013-04-27 21:33:00,
2013-04-27 17:43:00,55.0,55.0,30.43,South,188,1.0,3.0,100,0.00,,,0.55,,2013-04-27 21:43:00,
2013-04-27 17:53:00,54.0,54.0,30.43,SW,217,0.0,0.0,100,0.00,,,0.58,,2013-04-27 21:53:00,
2013-04-27 18:03:00,54.0,54.0,30.43,SW,217,0.0,0.0,100,0.00,,,0.61,,2013-04-27 22:03:00,
2013-04-27 18:13:00,54.0,54.0,30.43,SW,217,0.0,0.0,100,0.00,,,0.61,,2013-04-27 22:13:00,
2013-04-27 18:22:00,54.0,54.0,30.43,SW,217,0.0,0.0,100,0.00,,,0.62,,2013-04-27 22:22:00,
2013-04-27 18:32:00,54.0,54.0,30.43,SW,217,0.0,0.0,100,0.00,,,0.64,,2013-04-27 22:32:00,
2013-04-27 18:42:00,54.0,54.0,30.43,SW,217,0.0,0.0,100,0.00,,,0.64,,2013-04-27 22:42:00,
2013-04-27 18:52:00,54.0,54.0,30.43,SW,217,0.0,0.0,100,0.00,,,0.67,,2013-04-27 22:52:00,
2013-04-27 19:02:00,54.0,54.0,30.44,SW,217,0.0,0.0,100,0.00,,,0.68,,2013-04-27 23:02:00,
2013-04-27 19:12:00,54.0,54.0,30.44,SW,217,0.0,0.0,100,0.00,,,0.68,,2013-04-27 23:12:00,
2013-04-27 19:22:00,54.0,54.0,30.43,SW,217,0.0,0.0,100,0.00,,,0.70,,2013-04-27 23:22:00,
2013-04-27 19:32:00,54.0,54.0,30.44,SW,217,0.0,0.0,100,0.00,,,0.73,,2013-04-27 23:32:00,
2013-04-27 19:42:00,54.0,54.0,30.44,SW,217,0.0,0.0,100,0.00,,,0.73,,2013-04-27 23:42:00,
2013-04-27 19:52:00,54.0,54.0,30.42,SW,217,0.0,0.0,100,0.00,,,0.76,,2013-04-27 23:52:00,
2013-04-27 20:01:00,54.0,54.0,30.42,SW,217,0.0,0.0,100,0.00,,,0.78,,2013-04-28 00:01:00,
2013-04-27 20:12:00,54.0,54.0,30.42,SW,217,0.0,0.0,100,0.00,,,0.78,,2013-04-28 00:12:00,
2013-04-27 20:21:00,53.0,53.0,30.41,SW,217,0.0,0.0,100,0.00,,,0.81,,2013-04-28 00:21:00,
2013-04-27 20:32:00,53.0,53.0,30.41,SW,217,0.0,0.0,100,0.00,,,0.81,,2013-04-28 00:32:00,
2013-04-27 20:43:00,53.0,53.0,30.41,SW,217,0.0,0.0,100,0.00,,,0.81,,2013-04-28 00:43:00,
2013-04-27 20:52:00,53.0,53.0,30.40,SW,217,0.0,0.0,100,0.00,,,0.81,,2013-04-28 00:52:00,
2013-04-27 21:02:00,53.0,53.0,30.40,SW,217,0.0,0.0,100,0.00,,,0.81,,2013-04-28 01:02:00,
2013-04-27 21:11:00,53.0,53.0,30.40,SW,217,0.0,0.0,100,0.00,,,0.81,,2013-04-28 01:11:00,
2013-04-27 21:22:00,53.0,53.0,30.40,SW,217,0.0,0.0,100,0.00,,,0.81,,2013-04-28 01:22:00,
2013-04-27 21:32:00,53.0,53.0,30.40,SW,217,0.0,0.0,100,0.00,,,0.81,,2013-04-28 01:32:00,
2013-04-27 21:42:00,53.0,53.0,30.40,SW,217,0.0,0.0,100,0.00,,,0.81,,2013-04-28 01:42:00,
2013-04-27 21:52:00,53.0,53.0,30.40,SW,217,0.0,0.0,100,0.00,,,0.81,,2013-04-28 01:52:00,
2013-04-27 22:02:00,53.0,53.0,30.40,SW,217,0.0,0.0,100,0.00,,,0.81,,2013-04-28 02:02:00,
2013-04-27 22:12:00,53.0,53.0,30.40,SW,217,0.0,0.0,100,0.00,,,0.81,,2013-04-28 02:12:00,
2013-04-27 22:22:00,53.0,53.0,30.40,SW,217,0.0,0.0,100,0.00,,,0.81,,2013-04-28 02:22:00,
2013-04-27 22:32:00,53.0,53.0,30.40,SW,217,0.0,0.0,100,0.00,,,0.81,,2013-04-28 02:32:00,
2013-04-27 22:42:00,53.0,53.0,30.40,SW,217,0.0,0.0,100,0.00,,,0.81,,2013-04-28 02:42:00,
2013-04-27 22:52:00,53.0,53.0,30.39,SW,217,0.0,0.0,100,0.00,,,0.81,,2013-04-28 02:52:00,
2013-04-27 23:01:00,53.0,53.0,30.39,SW,217,0.0,0.0,100,0.00,,,0.81,,2013-04-28 03:01:00,
2013-04-27 23:11:00,53.0,53.0,30.39,SW,217,0.0,0.0,100,0.00,,,0.81,,2013-04-28 03:11:00,
2013-04-27 23:21:00,53.0,53.0,30.39,SW,217,0.0,0.0,100,0.00,,,0.81,,2013-04-28 03:21:00,
2013-04-27 23:33:00,53.0,53.0,30.39,SW,217,0.0,0.0,100,0.00,,,0.82,,2013-04-28 03:33:00,
2013-04-27 23:43:00,53.0,53.0,30.39,SW,217,0.0,0.0,100,0.00,,,0.82,,2013-04-28 03:43:00,
2013-04-27 23:53:00,53.0,53.0,30.39,SW,217,0.0,0.0,100,0.00,,,0.82,,2013-04-28 03:53:00,